Volver al catálogo

STARLINK-4788

ActivoComunicacionesVLEO
NORAD 53863·PAYLOAD·🇺🇸 United States

Lanzado Sep 19, 2022 desde Cape Canaveral Space Force Station

Loading…

Próximos Pases (próximas 24 horas)

TLE

ActualizadoSource: CelesTrak SupGP

Época: Sep 15, 2026, 02:36 UTC

1 53863C 22114AX  26258.10881944  .00000720  00000+0  23138-4 0  2580
2 53863  53.1563 143.6648 0001408  86.9133 258.2517 15.31713661    10

Sigue STARLINK-4788 en tiempo real con AllMySat

Download on the App Store